Regional Weather Roundup
Issued by NWS Midland/Odessa, TX

Skip options and go directly to product.
Home | Oldest Version | Previous Version | Current Version | All | Text Only | Save Text | Print | Product List | Glossary On

Skip product version selection by date and time.   
348
ASUS44 KMAF 181110
RWRMAF
MIDLAND AREA WEATHER ROUNDUP
NATIONAL WEATHER SERVICE MIDLAND TX
600 AM CDT THU SEP 18 2014

...IN SOUTHWEST TEXAS AND SOUTHEAST NEW MEXICO...

CITY           SKY/WX    TMP DP  RH WIND       PRES   REMARKS
ALPINE         CLOUDY    69  62  80 SW5       30.07S
ANDREWS        CLOUDY    67  65  94 CALM      29.96S
ARTESIA        NOT AVBL
BIG SPRING     MOCLDY    72  69  92 CALM      29.94F
CARLSBAD       LGT RAIN  66  32  28 SW8       29.98R
DRYDEN           N/A     76  70  82 NE6       29.87S
FORT STOCKTON  MOCLDY    71  68  90 S8        29.92S
GUAD PASS      FOG       60  59  96 E22         N/A  VSB 1/4
HOBBS          NOT AVBL
MARFA          CLOUDY    64  63  94 CALM      30.05S
MIDLAND AIRPK  CLOUDY    71  71 100 CALM      29.93S
MIDLAND INTL   CLOUDY    71  69  93 CALM      29.92S
ODESSA         CLOUDY    72  67  84 CALM      29.93S
PECOS          CLOUDY    73  66  79 N7        29.91S
PRESIDIO       FAIR      74  68  82 N9        29.89F
SEMINOLE       DRIZZLE   66  65  96 CALM      29.97R
SNYDER         CLOUDY    69  68  98 CALM      29.93S FOG
WINK           LGT RAIN  72  70  93 NW6       29.93R
$$
...OTHER STATIONS IN TEXAS...

CITY           SKY/WX    TMP DP  RH WIND       PRES   REMARKS
ABILENE        CLOUDY    73  70  90 SE8       29.91R
AMARILLO       MOCLDY    65  63  93 S3        30.00F
AUSTIN         TSTM      71  71 100 SW7       29.86S
BROWNSVILLE    MOCLDY    79  77  94 SE5       29.83F
CORPUS CHRISTI MOCLDY    77  75  93 S3        29.85R
DALLAS FTW     MOCLDY    75  71  87 SE6       29.88S
DEL RIO        MOCLDY    76  71  85 E6        29.84S
EL PASO        LGT RAIN  67  62  84 N12       29.97F
HOUSTON INT    LGT RAIN  76  76 100 SE5       29.87S
LUBBOCK        CLOUDY    68  65  90 E6        29.96F
SAN ANGELO     PTCLDY    69  66  90 CALM      29.88F
SAN ANTONIO    CLOUDY    79  75  87 S8        29.89R
WACO           CLOUDY    74  72  93 SE5       29.88F
WICHITA FALLS  NOT AVBL
$$
...OTHER LOCATIONS IN NEW MEXICO...

CITY           SKY/WX    TMP DP  RH WIND       PRES   REMARKS
ALAMAGORDO     LGT RAIN  66  64  94 N3        30.02S
ALBUQUERQUE    PTCLDY    60  55  83 N5        30.08S
CANNON AFB     CLOUDY    64  63  94 NE2       30.02S
CLOVIS           N/A     63  61  94 E3        30.04S
HOLLOMAN AFB   CLOUDY    66  66 100 CALM      30.00S
ROSWELL        LGT RAIN  67  65  93 E5        29.97F
RUIDOSO        CLOUDY    57  55  94 W5        30.17S
SANTA FE       PTCLDY    51  46  83 NE8       30.13S
TRUTH OR CONSE LGT RAIN  63  62  97 CALM      30.03F
TUCUMCARI      MOCLDY    62  59  90 S3        30.00F
$$

USA.gov is the U.S. government's official web portal to all federal, state and local government web resources and services.